Location: Tauranga
(37.6860°S, 176.1670°E)
Time: 22:21:20
(UTC+13:00)

CENTAUR R/B - Pass Details

Date: 24 January 2019
Orbit: 791 x 1397 km, 63.5° (Epoch: 16 February)

Event Time Altitude Azimuth Distance (km) Brightness Sun altitude
Exits shadow 23:28:59 36° 85° (E) 1,863 3.6 -26.6°
Drops below altitude 10° 23:34:33 10° 131° (SE) 3,060 5.2 -27.2°
Sets 23:37:18 0° 138° (SE) 3,935 5.9 -27.5°
